This is the latest recevied weather packets stored in our database for station/object NR5ON-13. If no packets are shown the sender has not sent any weather packets the latest 10 day(s).
| Time | Temp. | Humidity | Pressure | Rain* | Wind** | Luminosity | Snow |
|---|---|---|---|---|---|---|---|
| 1777151011 | 18.89° C | 16% | 1012.7 hPa | 0 mm | - | - | - |
| 1777150699 | 18.89° C | 17% | 1012.7 hPa | 0 mm | - | - | - |
| 1777150407 | 18.89° C | 16% | 1012.8 hPa | 0 mm | - | - | - |
| 1777150114 | 18.89° C | 16% | 1012.7 hPa | 0 mm | - | - | - |
| 1777149802 | 18.89° C | 16% | 1012.7 hPa | 0 mm | - | - | - |
| 1777149511 | 19.44° C | 16% | 1012.8 hPa | 0 mm | - | - | - |
| 1777149200 | 19.44° C | 17% | 1012.8 hPa | 0 mm | - | - | - |
| 1777148912 | 18.89° C | 17% | 1012.9 hPa | 0 mm | - | - | - |
| 1777148601 | 18.33° C | 17% | 1012.8 hPa | 0 mm | - | - | - |
| 1777148309 | 18.89° C | 16% | 1013 hPa | 0 mm | - | - | - |
| 1777148001 | 18.89° C | 16% | 1012.9 hPa | 0 mm | - | - | - |
| 1777147709 | 19.44° C | 16% | 1012.9 hPa | 0 mm | - | - | - |
| 1777147397 | 19.44° C | 15% | 1012.9 hPa | 0 mm | - | - | - |
| 1777147109 | 19.44° C | 15% | 1012.9 hPa | 0 mm | - | - | - |
| 1777146800 | 19.44° C | 15% | 1012.9 hPa | 0 mm | - | - | - |
| 1777146511 | 19.44° C | 16% | 1012.9 hPa | 0 mm | - | - | - |
| 1777146203 | 19.44° C | 16% | 1012.9 hPa | 0 mm | - | - | - |
| 1777145915 | 19.44° C | 16% | 1012.9 hPa | 0 mm | - | - | - |
| 1777145603 | 19.44° C | 17% | 1012.9 hPa | 0 mm | - | - | - |
| 1777145312 | 18.89° C | 17% | 1013 hPa | 0 mm | - | - | - |
| 1777145000 | 18.33° C | 18% | 1013.2 hPa | 0 mm | - | - | - |
| 1777144709 | 17.78° C | 18% | 1013.1 hPa | 0 mm | - | - | - |
| 1777144397 | 18.33° C | 18% | 1013.1 hPa | 0 mm | - | - | - |
| 1777144108 | 18.33° C | 18% | 1013.3 hPa | 0 mm | - | - | - |
| 1777143803 | 18.33° C | 17% | 1013.3 hPa | 0 mm | - | - | - |
* Rain latest hour (hover to see other rain measurements)
** Current wind speed in m/s (hover to see current wind gust speed)